Time,TemperatureF,DewpointF,PressureIn,WindDirection,WindDirectionDegrees,WindSpeedMPH,WindSpeedGustMPH,Humidity,HourlyPrecipIn,Conditions,Clouds,dailyrainin,SoftwareType,DateUTC
2013-12-25 00:02:00,-999.0,-99.9,30.07,North,-999,-999.0,-999.0,-999,-99.99,,,0.00,weatherlink.com 1.10,2013-12-25 05:02:00,
2013-12-25 00:17:00,-999.0,-99.9,30.07,North,-999,-999.0,-999.0,-999,-99.99,,,0.00,weatherlink.com 1.10,2013-12-25 05:17:00,
2013-12-25 00:32:00,-999.0,-99.9,30.07,North,-999,-999.0,-999.0,-999,-99.99,,,0.00,weatherlink.com 1.10,2013-12-25 05:32:00,
2013-12-25 00:47:00,-999.0,-99.9,30.07,North,-999,-999.0,-999.0,-999,-99.99,,,0.00,weatherlink.com 1.10,2013-12-25 05:47:00,
2013-12-25 01:02:00,-999.0,-99.9,30.07,North,-999,-999.0,-999.0,-999,-99.99,,,0.00,weatherlink.com 1.10,2013-12-25 06:02:00,
2013-12-25 01:17:00,-999.0,-99.9,30.06,North,-999,-999.0,-999.0,-999,-99.99,,,0.00,weatherlink.com 1.10,2013-12-25 06:17:00,
2013-12-25 01:32:00,-999.0,-99.9,30.05,North,-999,-999.0,-999.0,-999,-99.99,,,0.00,weatherlink.com 1.10,2013-12-25 06:32:00,
2013-12-25 01:47:00,-999.0,-99.9,30.05,North,-999,-999.0,-999.0,-999,-99.99,,,0.00,weatherlink.com 1.10,2013-12-25 06:47:00,
2013-12-25 02:02:00,-999.0,-99.9,30.05,North,-999,-999.0,-999.0,-999,-99.99,,,0.00,weatherlink.com 1.10,2013-12-25 07:02:00,
2013-12-25 02:17:00,-999.0,-99.9,30.05,North,-999,-999.0,-999.0,-999,-99.99,,,0.00,weatherlink.com 1.10,2013-12-25 07:17:00,
2013-12-25 02:32:00,-999.0,-99.9,30.04,North,-999,-999.0,-999.0,-999,-99.99,,,0.00,weatherlink.com 1.10,2013-12-25 07:32:00,
2013-12-25 02:47:00,-999.0,-99.9,30.04,North,-999,-999.0,-999.0,-999,-99.99,,,0.00,weatherlink.com 1.10,2013-12-25 07:47:00,
2013-12-25 03:02:00,-999.0,-99.9,30.04,North,-999,-999.0,-999.0,-999,-99.99,,,0.00,weatherlink.com 1.10,2013-12-25 08:02:00,
2013-12-25 03:17:00,-999.0,-99.9,30.04,North,-999,-999.0,-999.0,-999,-99.99,,,0.00,weatherlink.com 1.10,2013-12-25 08:17:00,
2013-12-25 03:32:00,-999.0,-99.9,30.04,North,-999,-999.0,-999.0,-999,-99.99,,,0.00,weatherlink.com 1.10,2013-12-25 08:32:00,
2013-12-25 03:47:00,-999.0,-99.9,30.04,North,-999,-999.0,-999.0,-999,-99.99,,,0.00,weatherlink.com 1.10,2013-12-25 08:47:00,
2013-12-25 04:02:00,-999.0,-99.9,30.04,North,-999,-999.0,-999.0,-999,-99.99,,,0.00,weatherlink.com 1.10,2013-12-25 09:02:00,
2013-12-25 04:17:00,-999.0,-99.9,30.04,North,-999,-999.0,-999.0,-999,-99.99,,,0.00,weatherlink.com 1.10,2013-12-25 09:17:00,
2013-12-25 04:32:00,-999.0,-99.9,30.04,North,-999,-999.0,-999.0,-999,-99.99,,,0.00,weatherlink.com 1.10,2013-12-25 09:32:00,
2013-12-25 04:47:00,-999.0,-99.9,30.04,North,-999,-999.0,-999.0,-999,-99.99,,,0.00,weatherlink.com 1.10,2013-12-25 09:47:00,
2013-12-25 05:02:00,-999.0,-99.9,30.04,North,-999,-999.0,-999.0,-999,-99.99,,,0.00,weatherlink.com 1.10,2013-12-25 10:02:00,
2013-12-25 05:18:00,-999.0,-99.9,30.04,North,-999,-999.0,-999.0,-999,-99.99,,,0.00,weatherlink.com 1.10,2013-12-25 10:18:00,
2013-12-25 05:32:00,-999.0,-99.9,30.04,North,-999,-999.0,-999.0,-999,-99.99,,,0.00,weatherlink.com 1.10,2013-12-25 10:32:00,
2013-12-25 05:47:00,-999.0,-99.9,30.04,North,-999,-999.0,-999.0,-999,-99.99,,,0.00,weatherlink.com 1.10,2013-12-25 10:47:00,
2013-12-25 06:02:00,-999.0,-99.9,30.04,North,-999,-999.0,-999.0,-999,-99.99,,,0.00,weatherlink.com 1.10,2013-12-25 11:02:00,
2013-12-25 06:17:00,-999.0,-99.9,30.05,North,-999,-999.0,-999.0,-999,-99.99,,,0.00,weatherlink.com 1.10,2013-12-25 11:17:00,
2013-12-25 06:32:00,-999.0,-99.9,30.05,North,-999,-999.0,-999.0,-999,-99.99,,,0.00,weatherlink.com 1.10,2013-12-25 11:32:00,
2013-12-25 06:47:00,-999.0,-99.9,30.06,North,-999,-999.0,-999.0,-999,-99.99,,,0.00,weatherlink.com 1.10,2013-12-25 11:47:00,
2013-12-25 07:02:00,-999.0,-99.9,30.06,North,-999,-999.0,-999.0,-999,-99.99,,,0.00,weatherlink.com 1.10,2013-12-25 12:02:00,
2013-12-25 07:17:00,-999.0,-99.9,30.07,North,-999,-999.0,-999.0,-999,-99.99,,,0.00,weatherlink.com 1.10,2013-12-25 12:17:00,
2013-12-25 07:32:00,-999.0,-99.9,30.07,North,-999,-999.0,-999.0,-999,-99.99,,,0.00,weatherlink.com 1.10,2013-12-25 12:32:00,
2013-12-25 07:47:00,-999.0,-99.9,30.08,North,-999,-999.0,-999.0,-999,-99.99,,,0.00,weatherlink.com 1.10,2013-12-25 12:47:00,
2013-12-25 08:02:00,-999.0,-99.9,30.08,North,-999,-999.0,-999.0,-999,-99.99,,,0.00,weatherlink.com 1.10,2013-12-25 13:02:00,
2013-12-25 08:17:00,-999.0,-99.9,30.08,North,-999,-999.0,-999.0,-999,-99.99,,,0.00,weatherlink.com 1.10,2013-12-25 13:17:00,
2013-12-25 08:32:00,-999.0,-99.9,30.08,North,-999,-999.0,-999.0,-999,-99.99,,,0.00,weatherlink.com 1.10,2013-12-25 13:32:00,
2013-12-25 08:47:00,72.8,66.0,30.09,ENE,78,7.0,-999.0,79,-99.99,,,0.00,weatherlink.com 1.10,2013-12-25 13:47:00,
2013-12-25 09:02:00,73.0,67.0,30.10,ENE,73,7.0,-999.0,80,-99.99,,,0.00,weatherlink.com 1.10,2013-12-25 14:02:00,
2013-12-25 09:17:00,73.3,67.0,30.10,ENE,74,11.0,-999.0,80,-99.99,,,0.00,weatherlink.com 1.10,2013-12-25 14:17:00,
2013-12-25 09:32:00,73.5,67.0,30.10,NE,51,11.0,-999.0,79,-99.99,,,0.00,weatherlink.com 1.10,2013-12-25 14:32:00,
2013-12-25 09:47:00,73.3,67.0,30.10,NE,49,9.0,-999.0,80,-99.99,,,0.00,weatherlink.com 1.10,2013-12-25 14:47:00,
2013-12-25 10:02:00,73.7,67.0,30.11,ENE,64,9.0,-999.0,79,-99.99,,,0.00,weatherlink.com 1.10,2013-12-25 15:02:00,
2013-12-25 10:17:00,74.0,67.0,30.11,NNE,29,13.0,-999.0,78,-99.99,,,0.00,weatherlink.com 1.10,2013-12-25 15:17:00,
2013-12-25 10:32:00,74.6,68.0,30.11,ENE,70,11.0,-999.0,79,-99.99,,,0.00,weatherlink.com 1.10,2013-12-25 15:32:00,
2013-12-25 10:47:00,74.4,67.0,30.11,NE,51,4.0,-999.0,78,-99.99,,,0.00,weatherlink.com 1.10,2013-12-25 15:47:00,
2013-12-25 11:02:00,74.6,68.0,30.11,NE,34,8.0,-999.0,79,-99.99,,,0.00,weatherlink.com 1.10,2013-12-25 16:02:00,
2013-12-25 11:17:00,74.9,67.0,30.11,NNE,30,7.0,-999.0,76,-99.99,,,0.00,weatherlink.com 1.10,2013-12-25 16:17:00,
2013-12-25 11:32:00,74.9,67.0,30.10,NE,50,6.0,-999.0,76,-99.99,,,0.00,weatherlink.com 1.10,2013-12-25 16:32:00,
2013-12-25 11:47:00,75.1,67.0,30.10,ENE,66,10.0,-999.0,76,-99.99,,,0.00,weatherlink.com 1.10,2013-12-25 16:47:00,
2013-12-25 12:02:00,75.3,67.0,30.10,East,86,4.0,-999.0,76,-99.99,,,0.00,weatherlink.com 1.10,2013-12-25 17:02:00,
2013-12-25 12:17:00,75.6,67.0,30.08,NE,50,11.0,-999.0,75,-99.99,,,0.00,weatherlink.com 1.10,2013-12-25 17:17:00,
2013-12-25 12:32:00,75.6,67.0,30.08,NE,40,4.0,-999.0,75,-99.99,,,0.00,weatherlink.com 1.10,2013-12-25 17:32:00,
2013-12-25 12:47:00,76.1,67.0,30.07,NE,45,11.0,-999.0,73,-99.99,,,0.00,weatherlink.com 1.10,2013-12-25 17:47:00,
2013-12-25 13:02:00,76.0,67.0,30.07,NE,44,3.0,-999.0,74,-99.99,,,0.00,weatherlink.com 1.10,2013-12-25 18:02:00,
2013-12-25 13:17:00,75.6,66.0,30.06,ENE,66,7.0,-999.0,73,-99.99,,,0.00,weatherlink.com 1.10,2013-12-25 18:17:00,
2013-12-25 13:32:00,76.3,67.0,30.05,NE,40,9.0,-999.0,72,-99.99,,,0.00,weatherlink.com 1.10,2013-12-25 18:32:00,
2013-12-25 13:47:00,76.0,66.0,30.05,East,88,11.0,-999.0,72,-99.99,,,0.00,weatherlink.com 1.10,2013-12-25 18:47:00,
2013-12-25 14:02:00,75.8,67.0,30.05,ENE,69,11.0,-999.0,73,-99.99,,,0.00,weatherlink.com 1.10,2013-12-25 19:02:00,
2013-12-25 14:17:00,75.8,67.0,30.05,ENE,61,9.0,-999.0,73,-99.99,,,0.00,weatherlink.com 1.10,2013-12-25 19:17:00,
2013-12-25 14:32:00,75.3,66.0,30.05,NNE,16,8.0,-999.0,73,-99.99,,,0.00,weatherlink.com 1.10,2013-12-25 19:32:00,
2013-12-25 14:47:00,75.4,67.0,30.04,ENE,71,5.0,-999.0,74,-99.99,,,0.00,weatherlink.com 1.10,2013-12-25 19:47:00,
2013-12-25 15:02:00,76.3,67.0,30.04,ENE,60,6.0,-999.0,72,-99.99,,,0.00,weatherlink.com 1.10,2013-12-25 20:02:00,
2013-12-25 15:17:00,76.1,67.0,30.04,NE,44,7.0,-999.0,73,-99.99,,,0.00,weatherlink.com 1.10,2013-12-25 20:17:00,
2013-12-25 15:32:00,76.5,66.0,30.04,NE,56,6.0,-999.0,71,-99.99,,,0.00,weatherlink.com 1.10,2013-12-25 20:32:00,
2013-12-25 15:47:00,76.3,67.0,30.04,ENE,69,9.0,-999.0,72,-99.99,,,0.00,weatherlink.com 1.10,2013-12-25 20:47:00,
2013-12-25 16:02:00,76.1,67.0,30.04,NE,42,5.0,-999.0,73,-99.99,,,0.00,weatherlink.com 1.10,2013-12-25 21:02:00,
2013-12-25 16:17:00,75.8,67.0,30.04,East,79,6.0,-999.0,74,-99.99,,,0.00,weatherlink.com 1.10,2013-12-25 21:17:00,
2013-12-25 16:32:00,75.6,67.0,30.04,NNE,32,10.0,-999.0,75,-99.99,,,0.00,weatherlink.com 1.10,2013-12-25 21:32:00,
2013-12-25 16:47:00,75.6,67.0,30.04,NE,38,6.0,-999.0,75,-99.99,,,0.00,weatherlink.com 1.10,2013-12-25 21:47:00,
2013-12-25 17:02:00,75.3,67.0,30.04,NE,51,2.0,-999.0,75,-99.99,,,0.00,weatherlink.com 1.10,2013-12-25 22:02:00,
2013-12-25 17:17:00,75.1,67.0,30.04,NE,53,5.0,-999.0,76,-99.99,,,0.00,weatherlink.com 1.10,2013-12-25 22:17:00,
2013-12-25 17:32:00,75.1,67.0,30.04,East,84,7.0,-999.0,77,-99.99,,,0.00,weatherlink.com 1.10,2013-12-25 22:32:00,
2013-12-25 17:47:00,-999.0,-99.9,30.04,North,-999,-999.0,-999.0,-999,-99.99,,,0.00,weatherlink.com 1.10,2013-12-25 22:47:00,
2013-12-25 18:02:00,-999.0,-99.9,30.04,North,-999,-999.0,-999.0,-999,-99.99,,,0.00,weatherlink.com 1.10,2013-12-25 23:02:00,
2013-12-25 18:17:00,-999.0,-99.9,30.04,North,-999,-999.0,-999.0,-999,-99.99,,,0.00,weatherlink.com 1.10,2013-12-25 23:17:00,
2013-12-25 18:32:00,-999.0,-99.9,30.05,North,-999,-999.0,-999.0,-999,-99.99,,,0.00,weatherlink.com 1.10,2013-12-25 23:32:00,
2013-12-25 18:47:00,-999.0,-99.9,30.05,North,-999,-999.0,-999.0,-999,-99.99,,,0.00,weatherlink.com 1.10,2013-12-25 23:47:00,
2013-12-25 19:02:00,-999.0,-99.9,30.05,North,-999,-999.0,-999.0,-999,-99.99,,,0.00,weatherlink.com 1.10,2013-12-26 00:02:00,
2013-12-25 19:17:00,-999.0,-99.9,30.05,North,-999,-999.0,-999.0,-999,-99.99,,,0.00,weatherlink.com 1.10,2013-12-26 00:17:00,
2013-12-25 19:32:00,-999.0,-99.9,30.05,North,-999,-999.0,-999.0,-999,-99.99,,,0.00,weatherlink.com 1.10,2013-12-26 00:32:00,
2013-12-25 19:47:00,-999.0,-99.9,30.06,North,-999,-999.0,-999.0,-999,-99.99,,,0.00,weatherlink.com 1.10,2013-12-26 00:47:00,
2013-12-25 20:02:00,-999.0,-99.9,30.07,North,-999,-999.0,-999.0,-999,-99.99,,,0.00,weatherlink.com 1.10,2013-12-26 01:02:00,
2013-12-25 20:17:00,-999.0,-99.9,30.07,North,-999,-999.0,-999.0,-999,-99.99,,,0.00,weatherlink.com 1.10,2013-12-26 01:17:00,
2013-12-25 20:32:00,-999.0,-99.9,30.07,North,-999,-999.0,-999.0,-999,-99.99,,,0.00,weatherlink.com 1.10,2013-12-26 01:32:00,
2013-12-25 20:47:00,-999.0,-99.9,30.07,North,-999,-999.0,-999.0,-999,-99.99,,,0.00,weatherlink.com 1.10,2013-12-26 01:47:00,
2013-12-25 21:02:00,-999.0,-99.9,30.07,North,-999,-999.0,-999.0,-999,-99.99,,,0.00,weatherlink.com 1.10,2013-12-26 02:02:00,
2013-12-25 21:17:00,-999.0,-99.9,30.07,North,-999,-999.0,-999.0,-999,-99.99,,,0.00,weatherlink.com 1.10,2013-12-26 02:17:00,
2013-12-25 21:32:00,-999.0,-99.9,30.07,North,-999,-999.0,-999.0,-999,-99.99,,,0.00,weatherlink.com 1.10,2013-12-26 02:32:00,
2013-12-25 21:47:00,-999.0,-99.9,30.07,North,-999,-999.0,-999.0,-999,-99.99,,,0.00,weatherlink.com 1.10,2013-12-26 02:47:00,
2013-12-25 22:02:00,-999.0,-99.9,30.07,North,-999,-999.0,-999.0,-999,-99.99,,,0.00,weatherlink.com 1.10,2013-12-26 03:02:00,
2013-12-25 22:17:00,-999.0,-99.9,30.07,North,-999,-999.0,-999.0,-999,-99.99,,,0.00,weatherlink.com 1.10,2013-12-26 03:17:00,
2013-12-25 22:47:00,-999.0,-99.9,30.07,North,-999,-999.0,-999.0,-999,-99.99,,,0.00,weatherlink.com 1.10,2013-12-26 03:47:00,
2013-12-25 23:02:00,-999.0,-99.9,30.06,North,-999,-999.0,-999.0,-999,-99.99,,,0.00,weatherlink.com 1.10,2013-12-26 04:02:00,
2013-12-25 23:17:00,-999.0,-99.9,30.06,North,-999,-999.0,-999.0,-999,-99.99,,,0.00,weatherlink.com 1.10,2013-12-26 04:17:00,
2013-12-25 23:32:00,-999.0,-99.9,30.05,North,-999,-999.0,-999.0,-999,-99.99,,,0.00,weatherlink.com 1.10,2013-12-26 04:32:00,
2013-12-25 23:47:00,-999.0,-99.9,30.05,North,-999,-999.0,-999.0,-999,-99.99,,,0.00,weatherlink.com 1.10,2013-12-26 04:47:00,